EW8735 Weather Reports


time (UTC)temp
C
wind
direction
speed
KPH
gust
KPH
rain 1hr
cm
rain 24hr
cm
rain mn
cm
humidity
%
barometer
mb
20260506013015 24 15 0.0 0.0 0.00 0.00 0.00 40 1006.8
20260506011522 25 15 0.0 0.0 0.00 0.00 0.00 38 1006.7
20260506010015 25 327 0.0 0.0 0.00 0.00 0.00 37 1006.5
20260506004513 25 324 0.0 0.0 0.00 0.00 0.00 35 1006.7
20260506003012 25 324 0.0 0.0 0.00 0.00 0.00 35 1006.6
20260506001514 25 37 0.0 0.0 0.00 0.00 0.00 35 1006.6
20260506000012 25 37 0.0 0.0 0.00 0.00 0.00 36 1006.7
20260505234513 26 38 0.0 0.0 0.00 0.00 0.00 34 1006.8
20260505233011 26 37 0.0 0.0 0.00 0.00 0.00 33 1006.8
20260505231515 26 38 0.0 0.0 0.00 0.00 0.00 33 1006.9
20260505230010 26 37 0.0 0.0 0.00 0.00 0.00 34 1007.0
20260505224519 26 37 0.0 0.0 0.00 0.00 0.00 34 1007.1
20260505223012 27 38 0.0 0.0 0.00 0.00 0.00 35 1007.1
20260505221507 26 37 0.0 0.0 0.00 0.00 0.00 33 1007.2
20260505220006 26 37 0.0 0.0 0.00 0.00 0.00 36 1007.3
20260505214505 26 37 0.0 0.0 0.00 0.00 0.00 35 1007.4
20260505213004 26 65 0.0 0.0 0.00 0.00 0.00 37 1007.5
20260505211634 26 64 0.0 0.0 0.00 0.00 0.00 39 1007.6
20260505210100 26 66 0.0 0.0 0.00 0.00 0.00 37 1007.6
20260505204559 25 66 0.0 0.0 0.00 0.00 0.00 40 1007.8
20260505203119 25 66 0.0 0.0 0.00 0.00 0.00 44 1007.8
20260505201552 23 66 0.0 0.0 0.00 0.00 0.00 45 1007.9
20260505200052 23 66 0.0 0.0 0.00 0.00 0.00 47 1008.0
20260505194552 24 69 0.0 0.0 0.00 0.00 0.00 42 1008.0
20260505193049 24 58 0.0 0.0 0.00 0.00 0.00 46 1008.1
20260505191551 23 59 0.0 0.0 0.00 0.00 0.00 47 1008.1
20260505190045 23 41 0.0 0.0 0.00 0.00 0.00 47 1008.2
20260505184548 23 41 0.0 0.0 0.00 0.00 0.00 45 1008.3
20260505183045 22 41 0.0 0.0 0.00 0.00 0.00 51 1008.2
20260505181537 22 59 0.0 0.0 0.00 0.00 0.00 51 1008.2
20260505180036 22 62 0.0 0.0 0.00 0.00 0.00 50 1008.1
20260505174534 22 62 0.0 0.0 0.00 0.00 0.00 51 1008.2
20260505173033 21 60 0.0 0.0 0.00 0.00 0.00 52 1008.2
20260505171529 21 57 0.0 0.0 0.00 0.00 0.00 54 1008.2
20260505170035 21 122 0.0 0.0 0.00 0.00 0.00 52 1008.1
20260505164528 21 123 0.0 0.0 0.00 0.00 0.00 51 1008.0
20260505163026 21 123 0.0 0.0 0.00 0.00 0.00 53 1008.0
20260505161517 20 122 0.0 0.0 0.00 0.00 0.00 58 1008.0
20260505153010 18 45 0.0 0.0 0.00 0.00 0.00 61 1007.9
20260505151504 17 46 0.0 0.0 0.00 0.00 0.00 65 1007.8
20260505150104 16 35 0.0 0.0 0.00 0.00 0.00 67 1007.7
20260505124535 11 46 0.0 0.0 0.00 0.00 0.00 78 1006.3
20260505123034 11 47 0.0 0.0 0.00 0.00 0.00 78 1006.2
20260505121535 12 47 0.0 0.0 0.00 0.00 0.00 76 1006.1
20260505120027 12 46 0.0 0.0 0.00 0.00 0.00 74 1005.8
20260505114524 13 46 0.0 0.0 0.00 0.00 0.00 74 1005.7
20260505113033 13 47 0.0 0.0 0.00 0.00 0.00 74 1005.6
20260505101521 13 47 0.0 0.0 0.00 0.00 0.00 73 1005.1
20260505100011 13 47 0.0 0.0 0.00 0.00 0.00 73 1005.0
20260505094508 14 47 0.0 0.0 0.00 0.00 0.00 70 1004.9
20260505093006 14 46 0.0 0.0 0.00 0.00 0.00 69 1004.8
20260505091500 14 45 0.0 0.0 0.00 0.00 0.00 70 1004.8
20260505090101 14 45 0.0 0.0 0.00 0.00 0.00 70 1004.8
20260505084603 13 45 0.0 0.0 0.00 0.00 0.00 69 1004.8
20260505083104 13 45 0.0 0.0 0.00 0.00 0.00 69 1004.7
20260505081548 13 45 0.0 0.0 0.00 0.00 0.00 69 1004.7
20260505080045 13 45 0.0 0.0 0.00 0.00 0.00 69 1004.7
20260505074542 12 45 0.0 0.0 0.00 0.00 0.00 70 1004.7
20260505073041 12 45 0.0 0.0 0.00 0.00 0.00 72 1004.6
20260505071538 12 45 0.0 0.0 0.00 0.00 0.00 74 1004.4
20260505070043 12 45 0.0 0.0 0.00 0.00 0.00 71 1004.3
20260505064534 13 45 0.0 0.0 0.00 0.00 0.00 69 1004.2
20260505063034 13 45 0.0 0.0 0.00 0.00 0.00 69 1003.7
20260505061553 14 45 0.0 0.0 0.00 0.00 0.00 68 1004.0
20260505060035 13 45 0.0 0.0 0.00 0.00 0.00 68 1003.6
20260505054543 13 45 0.0 0.0 0.00 0.00 0.00 68 1003.5
20260505053032 13 45 0.0 0.0 0.00 0.00 0.00 68 1003.4
20260505051532 14 45 0.0 0.0 0.00 0.00 0.00 65 1003.3
20260505041531 17 45 0.0 0.0 0.00 0.00 0.00 55 1003.0
20260505040039 17 45 0.0 0.0 0.00 0.00 0.00 54 1002.8
20260505034537 17 45 0.0 0.0 0.00 0.00 0.00 55 1002.7
20260505033029 17 45 0.0 0.0 0.00 0.00 0.00 57 1002.6
20260505031530 18 45 0.0 0.0 0.00 0.00 0.00 56 1002.5
20260505030029 20 45 0.0 0.0 0.00 0.00 0.00 54 1002.4
20260505024528 22 48 0.0 0.0 0.00 0.00 0.00 46 1002.4
20260505023026 24 46 0.0 0.0 0.00 0.00 0.00 37 1002.4
20260505021526 25 46 0.0 0.0 0.00 0.00 0.00 35 1002.5
20260505020035 25 48 0.0 0.0 0.00 0.00 0.00 35 1002.6
20260505014524 25 48 0.0 0.0 0.00 0.00 0.00 33 1002.6